Terminal Aerodrome Forecast
Issued by NWS Sterling, VA

Current Version | Previous Version | Text Only | Print | Product List | Glossary Off
Versions: 1 2 3 4 5 6 7 8 9 10 11 12 13 14 15 16 17 18 19 20 21 22

000
FTUS41 KLWX 170500 RRA
TAFIAD
TAF
KIAD 170545Z 1706/1812 24004KT 5SM MIFG BKN060
     FM171200 24006KT P6SM FEW090
     FM171600 20011KT P6SM FEW250
     FM172000 21011G18KT P6SM FEW250
     FM180000 22006KT P6SM SCT060=

USA.gov is the U.S. government's official web portal to all federal, state and local government web resources and services.